Location: Brachbach
(49.1847°N, 9.7240°E)
Time: 18:46:49
(UTC+00:00)

YAOGAN 6 - Pass Details

Date: 23 May 2024
Orbit: 408 x 434 km, 97.2° (Epoch: 24 June)

Event Time Altitude Azimuth Distance (km) Brightness Sun altitude
Rises 02:39:12 0° 20° (NNE) 2,440 7.4 -7.1°
Reaches altitude 10° 02:41:22 10° 30° (NNE) 1,562 6.6 -6.8°
Maximum altitude 02:44:27 34° 97° (E) 750 4.0 -6.5°
Drops below altitude 10° 02:47:29 10° 164° (SSE) 1,535 4.9 -6.1°
Sets 02:49:35 0° 174° (S) 2,392 5.7 -5.8°
